WA1TYB-13 Weather Reports


time (UTC)temp
F
wind
direction
speed
knots
gust
knots
rain 1hr
in
rain 24hr
in
rain mn
in
humidity
%
barometer
mb
20260502220105 69 348 3.5 6.1 0.00 0.00 0.00 25 1017.9
20260502215602 68 355 0.0 4.3 0.00 0.00 0.00 31 1017.9
20260502215058 67 129 0.9 2.6 0.00 0.00 0.00 26 1018.0
20260502214555 67 64 1.7 5.2 0.00 0.00 0.00 27 1018.1
20260502214053 68 70 4.3 6.1 0.00 0.00 0.00 29 1018.2
20260502213550 68 301 0.0 0.9 0.00 0.00 0.00 27 1018.5
20260502213047 68 313 2.6 5.2 0.00 0.00 0.00 27 1018.4
20260502212546 68 359 3.5 5.2 0.00 0.00 0.00 27 1018.6
20260502212044 67 29 3.5 6.1 0.00 0.00 0.00 27 1019.0
20260502211539 66 24 2.6 6.1 0.00 0.00 0.00 28 1018.6
20260502211036 67 265 1.7 4.3 0.00 0.00 0.00 31 1018.7
20260502210533 67 18 2.6 4.3 0.00 0.00 0.00 30 1018.9
20260502210030 65 325 4.3 7.8 0.00 0.00 0.00 31 1018.9
20260502205527 65 3 3.5 7.0 0.00 0.00 0.00 31 1018.9
20260502205024 65 24 2.6 7.0 0.00 0.00 0.00 33 1018.8
20260502204521 65 343 3.5 6.1 0.00 0.00 0.00 31 1018.9
20260502204019 64 323 2.6 6.1 0.00 0.00 0.00 31 1018.9
20260502203515 65 4 3.5 6.1 0.00 0.00 0.00 30 1019.1
20260502203012 64 318 3.5 7.0 0.00 0.00 0.00 32 1019.0
20260502202508 64 288 4.3 7.0 0.00 0.00 0.00 30 1019.1
20260502202007 65 1 5.2 7.8 0.00 0.00 0.00 28 1019.1
20260502201503 65 26 4.3 7.0 0.00 0.00 0.00 28 1019.3
20260502200959 64 314 3.5 7.8 0.00 0.00 0.00 30 1019.4
20260502200455 65 338 3.5 7.0 0.00 0.00 0.00 28 1019.5
20260502195953 65 320 4.3 7.8 0.00 0.00 0.00 31 1019.6
20260502195450 65 17 4.3 7.8 0.00 0.00 0.00 31 1019.6
20260502194946 65 344 4.3 7.8 0.00 0.00 0.00 31 1019.6
20260502194443 65 43 4.3 6.1 0.00 0.00 0.00 33 1019.3
20260502193939 65 297 7.8 7.8 0.00 0.00 0.00 31 1019.6
20260502193437 65 333 6.1 7.8 0.00 0.00 0.00 30 1019.6
20260502192932 66 319 4.3 6.1 0.00 0.00 0.00 31 1019.6
20260502192429 64 321 5.2 6.1 0.00 0.00 0.00 30 1019.7
20260502191926 65 271 4.3 6.1 0.00 0.00 0.00 31 1019.8
20260502191424 64 71 1.7 5.2 0.00 0.00 0.00 31 1019.8
20260502190921 65 333 6.1 8.7 0.00 0.00 0.00 31 1019.9
20260502190418 64 318 0.9 2.6 0.00 0.00 0.00 36 1020.0
20260502185914 65 83 2.6 4.3 0.00 0.00 0.00 30 1020.3
20260502185410 64 315 2.6 4.3 0.00 0.00 0.00 35 1020.3
20260502184907 63 296 4.3 7.0 0.00 0.00 0.00 34 1020.5
20260502184403 64 0 3.5 8.7 0.00 0.00 0.00 33 1020.4
20260502183859 63 309 2.6 5.2 0.00 0.00 0.00 34 1020.5
20260502183355 63 351 1.7 6.1 0.00 0.00 0.00 35 1020.5
20260502182851 64 301 4.3 6.1 0.00 0.00 0.00 34 1020.4
20260502182347 63 10 3.5 5.2 0.00 0.00 0.00 35 1020.5
20260502181843 63 294 4.3 5.2 0.00 0.00 0.00 36 1020.5
20260502181342 62 336 3.5 7.0 0.00 0.00 0.00 37 1020.6
20260502180839 61 290 2.6 7.0 0.00 0.00 0.00 40 1020.9
20260502180336 61 339 2.6 5.2 0.00 0.00 0.00 36 1020.9
20260502170255 57 303 2.6 2.6 0.00 0.00 0.00 44 1021.6
20260502164243 57 281 3.5 4.3 0.00 0.00 0.00 43 1021.5
20260502163738 57 333 1.7 1.7 0.00 0.00 0.00 47 1021.5
20260502163235 57 317 2.6 6.1 0.00 0.00 0.00 44 1021.7
20260502162732 56 326 1.7 4.3 0.00 0.00 0.00 45 1021.7
20260502162229 57 294 4.3 6.1 0.00 0.00 0.00 45 1021.7
20260502161726 56 16 1.7 4.3 0.00 0.00 0.00 46 1021.6
20260502161222 56 41 3.5 4.3 0.00 0.00 0.00 45 1021.7
20260502160721 56 5 2.6 6.1 0.00 0.00 0.00 45 1022.0
20260502160219 55 19 1.7 5.2 0.00 0.00 0.00 45 1022.0
20260502152143 52 230 2.6 2.6 0.00 0.00 0.00 50 1022.2
20260502151641 51 257 2.6 4.3 0.00 0.00 0.00 49 1022.3
20260502151137 50 224 2.6 4.3 0.00 0.00 0.00 51 1022.4
20260502150635 50 227 1.7 4.3 0.00 0.00 0.00 51 1022.4
20260502150131 50 244 0.9 2.6 0.00 0.00 0.00 50 1022.5
20260502130520 40 206 0.0 0.0 0.00 0.00 0.00 61 1021.3
20260502123503 35 40 0.0 0.9 0.00 0.00 0.00 72 1021.3
20260502122959 35 305 0.9 0.9 0.00 0.00 0.00 71 1021.2
20260502122455 35 355 0.9 1.7 0.00 0.00 0.00 70 1020.9
20260502121954 36 351 1.7 2.6 0.00 0.00 0.00 69 1020.9
20260502121451 37 3 0.0 1.7 0.00 0.00 0.00 67 1021.3
20260502120948 37 350 0.0 0.0 0.00 0.00 0.00 67 1020.9
20260502120444 38 330 0.0 0.9 0.00 0.00 0.00 66 1020.9
20260502115439 38 104 0.9 1.7 0.00 0.00 0.00 68 1020.8
20260502114935 38 133 0.9 1.7 0.00 0.00 0.00 67 1020.6
20260502114432 36 112 1.7 1.7 0.00 0.00 0.00 71 1020.6
20260502113929 35 138 0.9 0.9 0.00 0.00 0.00 73 1021.2
20260502113426 35 160 0.0 0.0 0.00 0.00 0.00 72 1020.7
20260502112925 35 159 0.0 0.0 0.00 0.00 0.00 72 1020.7
20260502112422 36 159 0.0 0.9 0.00 0.00 0.00 72 1020.6
20260502111920 36 159 0.9 1.7 0.00 0.00 0.00 72 1020.6
20260502111416 36 230 0.9 0.9 0.00 0.00 0.00 70 1020.6
20260502110914 36 293 2.6 4.3 0.00 0.00 0.00 69 1020.6
20260502110412 39 295 1.7 1.7 0.00 0.00 0.00 63 1020.5
20260502105909 40 213 0.0 0.9 0.00 0.00 0.00 60 1020.4
20260502105406 41 76 0.9 1.7 0.00 0.00 0.00 59 1020.3
20260502104904 40 67 0.9 1.7 0.00 0.00 0.00 59 1020.4
20260502104401 39 79 0.9 1.7 0.00 0.00 0.00 61 1020.5
20260502103858 39 34 0.9 0.9 0.00 0.00 0.00 63 1020.6
20260502103355 39 46 0.9 0.9 0.00 0.00 0.00 61 1020.5
20260502102852 39 96 0.0 0.9 0.00 0.00 0.00 60 1020.4
20260502102349 40 96 0.0 0.0 0.00 0.00 0.00 59 1020.5
20260502101846 41 96 0.9 0.9 0.00 0.00 0.00 59 1020.3
20260502101344 40 96 0.9 0.9 0.00 0.00 0.00 60 1020.3
20260502100843 41 146 1.7 2.6 0.00 0.00 0.00 59 1020.2
20260502100342 41 169 0.9 1.7 0.00 0.00 0.00 59 1020.3
20260502091315 41 197 0.9 0.9 0.00 0.00 0.00 59 1019.8
20260502090813 42 236 0.9 0.9 0.00 0.00 0.00 58 1019.8
20260502090309 41 147 0.9 0.9 0.00 0.00 0.00 59 1019.8
20260502071204 47 246 2.6 2.6 0.00 0.00 0.00 49 1019.5
20260502070703 46 246 3.5 4.3 0.00 0.00 0.00 50 1019.6
20260502070200 45 229 3.5 4.3 0.00 0.00 0.00 52 1019.5
20260502065659 46 221 3.5 4.3 0.00 0.00 0.00 51 1019.6
20260502065155 46 246 2.6 4.3 0.00 0.00 0.00 52 1019.3
20260502064654 46 228 4.3 5.2 0.00 0.00 0.00 52 1019.5
20260502064151 46 217 4.3 5.2 0.00 0.00 0.00 52 1019.5
20260502063649 46 210 3.5 4.3 0.00 0.00 0.00 51 1019.4
20260502063147 47 203 1.7 2.6 0.00 0.00 0.00 49 1019.1
20260502062643 46 179 1.7 1.7 0.00 0.00 0.00 50 1019.4
20260502062141 46 303 0.0 0.9 0.00 0.00 0.00 50 1019.3
20260502061639 48 270 0.9 1.7 0.00 0.00 0.00 48 1019.5
20260502061137 48 312 0.9 1.7 0.00 0.00 0.00 47 1019.5
20260502060636 47 327 0.9 0.9 0.00 0.00 0.00 48 1019.5
20260502060133 47 295 0.0 0.9 0.00 0.00 0.00 48 1019.3
20260502055631 48 304 0.0 0.0 0.00 0.00 0.00 47 1019.0
20260502055129 49 193 0.9 1.7 0.00 0.00 0.00 46 1019.4
20260502054628 50 204 2.6 2.6 0.00 0.00 0.00 44 1019.3
20260502054125 50 184 1.7 1.7 0.00 0.00 0.00 44 1019.1
20260502053622 50 194 1.7 2.6 0.00 0.00 0.00 44 1019.1
20260502053119 50 194 1.7 1.7 0.00 0.00 0.00 42 1019.0
20260502052617 50 160 1.7 1.7 0.00 0.00 0.00 44 1018.9
20260502052115 51 221 0.9 1.7 0.00 0.00 0.00 43 1019.1
20260502051613 50 216 0.9 1.7 0.00 0.00 0.00 44 1018.9
20260502051111 50 145 0.9 0.9 0.00 0.00 0.00 45 1019.0
20260502050607 51 183 0.9 0.9 0.00 0.00 0.00 44 1019.1
20260502050104 51 231 0.9 1.7 0.00 0.00 0.00 43 1019.0
20260502045600 52 212 0.9 1.7 0.00 0.00 0.00 42 1018.8
20260502045057 52 206 1.7 1.7 0.00 0.00 0.00 42 1018.9
20260502044554 52 201 2.6 4.3 0.00 0.00 0.00 42 1019.0
20260502044051 51 211 1.7 2.6 0.00 0.00 0.00 42 1018.8
20260502043548 51 188 1.7 1.7 0.00 0.00 0.00 44 1019.0
20260502043045 51 203 0.9 0.9 0.00 0.00 0.00 44 1018.8
20260502042539 52 189 1.7 2.6 0.00 0.00 0.00 43 1018.7
20260502042037 53 210 2.6 4.3 0.00 0.00 0.00 41 1018.7
20260502041535 53 198 2.6 2.6 0.00 0.00 0.00 40 1018.9
20260502041032 53 177 0.9 1.7 0.00 0.00 0.00 40 1018.5
20260502040528 53 185 0.9 0.9 0.00 0.00 0.00 40 1018.9
20260502040025 53 128 0.9 0.9 0.00 0.00 0.00 40 1018.8
20260502035521 53 135 0.0 0.9 0.00 0.00 0.00 40 1018.8
20260502035019 53 171 1.7 1.7 0.00 0.00 0.00 39 1018.6
20260502034516 54 179 0.9 1.7 0.00 0.00 0.00 38 1018.5
20260502034015 55 162 0.9 1.7 0.00 0.00 0.00 38 1018.1
20260502033513 55 165 0.0 1.7 0.00 0.00 0.00 38 1018.4
20260502033010 56 110 2.6 2.6 0.00 0.00 0.00 37 1018.4
20260502032505 59 236 1.7 2.6 0.00 0.00 0.00 33 1018.0
20260502032002 59 120 3.5 6.1 0.00 0.00 0.00 30 1018.1
20260502031500 60 119 4.3 7.8 0.00 0.00 0.00 29 1018.2
20260502030958 59 158 5.2 6.1 0.00 0.00 0.00 30 1017.9
20260502030456 61 150 5.2 7.0 0.00 0.00 0.00 31 1018.0
20260502025954 60 148 5.2 7.0 0.00 0.00 0.00 30 1017.7
20260502025451 61 150 6.1 7.8 0.00 0.00 0.00 28 1017.9
20260502024949 61 137 5.2 7.8 0.00 0.00 0.00 30 1017.9
20260502024447 61 134 6.1 7.0 0.00 0.00 0.00 32 1017.6
20260502023945 62 157 6.1 7.0 0.00 0.00 0.00 30 1017.5
20260502023442 62 130 6.1 7.0 0.00 0.00 0.00 29 1017.8
20260502022939 62 150 4.3 7.0 0.00 0.00 0.00 32 1017.9
20260502022435 62 173 4.3 7.8 0.00 0.00 0.00 31 1017.5
20260502021932 62 155 5.2 8.7 0.00 0.00 0.00 32 1017.5
20260502021430 63 139 4.3 7.0 0.00 0.00 0.00 32 1017.7
20260502020927 63 147 6.1 6.1 0.00 0.00 0.00 32 1017.6
20260502020425 63 145 5.2 7.8 0.00 0.00 0.00 32 1017.7
20260502015921 64 141 6.1 7.0 0.00 0.00 0.00 34 1017.5
20260502015419 65 141 5.2 7.0 0.00 0.00 0.00 32 1017.5
20260502014915 65 146 4.3 7.8 0.00 0.00 0.00 31 1017.5
20260502014413 66 138 6.1 7.8 0.00 0.00 0.00 30 1017.7
20260502013909 66 154 5.2 7.0 0.00 0.00 0.00 30 1017.7
20260502013404 66 163 3.5 6.1 0.00 0.00 0.00 30 1017.8
20260502012901 67 148 4.3 7.0 0.00 0.00 0.00 29 1017.9
20260502012359 67 161 5.2 7.0 0.00 0.00 0.00 28 1017.8
20260502011856 68 146 6.1 8.7 0.00 0.00 0.00 26 1017.8
20260502011352 68 173 6.1 7.8 0.00 0.00 0.00 24 1017.8
20260502010849 68 173 6.1 8.7 0.00 0.00 0.00 25 1017.9
20260502010346 69 167 4.3 7.8 0.00 0.00 0.00 26 1017.7
20260502005843 69 133 6.1 8.7 0.00 0.00 0.00 24 1017.6
20260502005341 69 176 4.3 8.7 0.00 0.00 0.00 24 1017.9
20260502004838 69 163 4.3 9.6 0.00 0.00 0.00 24 1018.0
20260502004333 69 155 7.0 8.7 0.00 0.00 0.00 23 1017.9
20260502003832 69 130 7.0 7.8 0.00 0.00 0.00 23 1017.8
20260502003328 69 146 6.1 9.6 0.00 0.00 0.00 22 1018.1
20260502002825 69 146 6.1 8.7 0.00 0.00 0.00 20 1018.0
20260502002322 70 153 7.8 9.6 0.00 0.00 0.00 22 1018.0
20260502001819 70 144 6.1 9.6 0.00 0.00 0.00 21 1018.2
20260502001317 69 158 6.1 8.7 0.00 0.00 0.00 20 1018.0
20260502000814 70 146 7.8 9.6 0.00 0.00 0.00 20 1018.0
20260502000312 70 137 8.7 9.6 0.00 0.00 0.00 22 1018.1
20260501235808 70 145 6.1 8.7 0.00 0.00 0.00 19 1018.1
20260501235305 70 153 7.8 9.6 0.00 0.00 0.00 19 1018.2
20260501234759 70 148 6.1 8.7 0.00 0.00 0.00 22 1018.1
20260501234257 71 156 6.1 8.7 0.00 0.00 0.00 21 1018.1
20260501233755 70 133 3.5 8.7 0.00 0.00 0.00 21 1018.5
20260501233252 70 177 4.3 7.0 0.00 0.00 0.00 22 1018.4
20260501232748 70 140 6.1 8.7 0.00 0.00 0.00 20 1018.7
20260501232245 70 172 5.2 8.7 0.00 0.00 0.00 16 1018.4
20260501231743 70 189 3.5 9.6 0.00 0.00 0.00 22 1018.5
20260501231241 70 144 7.8 7.8 0.00 0.00 0.00 19 1018.7
20260501230739 70 136 6.1 7.0 0.00 0.00 0.00 19 1018.5
20260501230237 69 141 6.1 8.7 0.00 0.00 0.00 22 1018.5
20260501225735 70 153 8.7 9.6 0.00 0.00 0.00 18 1018.4
20260501225232 70 170 5.2 11.3 0.00 0.00 0.00 21 1018.6
20260501224728 69 158 6.1 7.0 0.00 0.00 0.00 20 1018.7
20260501224226 70 136 7.0 12.2 0.00 0.00 0.00 20 1018.9
20260501223721 70 171 4.3 6.1 0.00 0.00 0.00 21 1018.9
20260501223218 69 175 4.3 7.8 0.00 0.00 0.00 22 1018.8
20260501222714 69 141 4.3 7.0 0.00 0.00 0.00 22 1018.7
20260501222211 70 161 3.5 7.8 0.00 0.00 0.00 26 1018.9
20260501221708 69 127 7.0 7.8 0.00 0.00 0.00 23 1018.9
20260501221205 69 121 2.6 4.3 0.00 0.00 0.00 21 1018.9
20260501220703 69 130 4.3 8.7 0.00 0.00 0.00 19 1019.1